Scottsbluff, NE

1:23 PM MDT on July 28, 2017 (GMT -0600)
Heilig

Weather History for KBFF - November, 2011

Change the Weather History Date:

Thursday, November 3, 2011

  Actual Average Record
Temperature  
Mean Temperature 31 °F 42 °F  
Max Temperature 49 °F 57 °F 77 °F (1930)
Min Temperature 13 °F 27 °F -4 °F (1991)
Degree Days  
Heating Degree Days 34 23  
Month to date heating degree days 96 68  
Since 1 July heating degree days 640 759  
Cooling Degree Days 0 0  
Month to date cooling degree days 0 0  
Year to date cooling degree days 932 724  
Moisture  
Dew Point 18 °F    
Average Humidity 60    
Maximum Humidity 92    
Minimum Humidity 28    
Precipitation  
Precipitation 0.00 in 0.02 in 0.59 in (2014)
Month to date precipitation 0.21 0.08  
Year to date precipitation 18.34 14.70  
Snow  
Snow 0.00 in 0.20 in 6.20 in (1973)
Month to date snowfall 2.8 0.5  
Since 1 July snowfall 2.8 3.7  
Snow Depth 0.00 in    
Sea Level Pressure  
Sea Level Pressure 30.23 in    
Wind  
Wind Speed 8 mph (ESE)    
Max Wind Speed 20 mph    
Max Gust Speed 24 mph    
Visibility 10 miles    
Events      
T = Trace of Precipitation, MM = Missing Value Source: NWS Daily Summary

Daily Weather History Graph

Daily Weather History Graph

Search for Another Location

Airport or City:

Trip Planner

Search our weather history database for the weather conditions in past years. The results will help you decide how hot, cold, wet, or windy it might be!

Date:

Astronomy

Nov. 03, 2011 Rise Set
Actual Time 7:28 AM MDT 5:46 PM MDT
Civil Twilight 6:59 AM MDT 6:15 PM MDT
Nautical Twilight 6:26 AM MDT 6:48 PM MDT
Astronomical Twilight 5:54 AM MDT 7:20 PM MDT
Moon 2:16 PM MDT (11/3) 12:37 AM MDT (11/3)
Length of Visible Light 11h 15m
Length of Day
10h 17m
First Quarter, 61% of the Moon is Illuminated
Nov 3
First Quarter
Nov 10
Full
Nov 18
Last Quarter
Nov 24
New
Dec 2
First Quarter

Hourly Weather History & Observations

Time (MDT) Temp. Windchill Dew Point Humidity Pressure Visibility Wind Dir Wind Speed Gust Speed Precip Events Conditions
12:53 AM 16.0 °F - 12.0 °F 84% 30.47 in 10.0 mi Calm Calm - N/A   Clear
1:53 AM 17.1 °F 11.7 °F 12.0 °F 81% 30.43 in 10.0 mi NE 3.5 mph - N/A   Clear
2:53 AM 15.1 °F - 10.0 °F 80% 30.43 in 10.0 mi Calm Calm - N/A   Clear
3:53 AM 15.8 °F 10.2 °F 10.4 °F 79% 30.30 in 10.0 mi NE 3.5 mph - N/A   Clear
4:53 AM 15.1 °F - 10.9 °F 84% 30.39 in 10.0 mi Calm Calm - N/A   Clear
5:53 AM 14.0 °F 8.2 °F 9.0 °F 80% 30.40 in 10.0 mi ESE 3.5 mph - N/A   Clear
6:53 AM 12.9 °F 3.8 °F 10.0 °F 88% 30.39 in 10.0 mi ESE 5.8 mph - N/A   Clear
7:53 AM 15.1 °F 6.4 °F 10.9 °F 84% 30.38 in 10.0 mi ESE 5.8 mph - N/A   Clear
8:53 AM 19.9 °F 10.1 °F 15.1 °F 81% 30.36 in 10.0 mi East 8.1 mph - N/A   Clear
9:53 AM 26.1 °F 18.4 °F 19.0 °F 75% 30.34 in 10.0 mi SE 6.9 mph - N/A   Clear
10:53 AM 32.0 °F 25.6 °F 21.0 °F 64% 30.30 in 10.0 mi SE 6.9 mph - N/A   Clear
11:53 AM 39.0 °F 32.8 °F 23.0 °F 53% 30.25 in 10.0 mi SE 9.2 mph - N/A   Clear
12:53 PM 45.0 °F 40.6 °F 24.1 °F 44% 30.22 in 10.0 mi SSE 8.1 mph - N/A   Clear
1:53 PM 46.9 °F - 21.0 °F 36% 30.17 in 10.0 mi SSE 16.1 mph - N/A   Clear
2:53 PM 48.0 °F - 17.1 °F 29% 30.14 in 10.0 mi SSE 17.3 mph - N/A   Clear
3:53 PM 46.4 °F 40.1 °F 15.8 °F 29% 30.04 in 10.0 mi SSE 15.0 mph - N/A   Clear
4:53 PM 44.6 °F 38.8 °F 17.6 °F 34% 30.02 in 10.0 mi SSE 11.5 mph 23.0 mph N/A   Clear
5:53 PM 37.0 °F 30.4 °F 24.1 °F 59% 30.14 in 10.0 mi SSE 9.2 mph - N/A   Clear
6:53 PM 33.1 °F 26.1 °F 25.0 °F 72% 30.14 in 10.0 mi ESE 8.1 mph - N/A   Clear
7:53 PM 30.9 °F 24.3 °F 24.1 °F 76% 30.11 in 10.0 mi East 6.9 mph - N/A   Clear
8:53 PM 30.0 °F 22.4 °F 24.1 °F 79% 30.09 in 10.0 mi ESE 8.1 mph - N/A   Clear
9:53 PM 30.9 °F 21.7 °F 25.0 °F 79% 30.06 in 10.0 mi ESE 11.5 mph - N/A   Clear
10:53 PM 30.2 °F 20.8 °F 24.8 °F 80% 29.95 in 10.0 mi ESE 11.5 mph - N/A   Clear
11:53 PM 30.0 °F 21.7 °F 25.0 °F 82% 29.97 in 10.0 mi ESE 9.2 mph - N/A   Clear